| time (UTC) | temp F | wind direction | speed MPH | gust MPH | rain 1hr in | rain 24hr in | rain mn in | humidity % | barometer mb |
| 20260509010548 | 68 | 241 | 2.0 | 11.0 | 0.00 | 0.00 | 0.00 | 28 | 999.6 |
| 20260509010026 | 68 | 337 | 1.0 | 2.0 | 0.00 | 0.00 | 0.00 | 28 | 999.7 |
| 20260509005524 | 68 | 328 | 1.0 | 2.0 | 0.00 | 0.00 | 0.00 | 28 | 999.6 |
| 20260509005042 | 68 | 352 | 1.0 | 4.0 | 0.00 | 0.00 | 0.00 | 28 | 999.5 |
| 20260509004519 | 68 | 2 | 1.0 | 3.0 | 0.00 | 0.00 | 0.00 | 28 | 999.5 |
| 20260509004037 | 68 | 348 | 1.0 | 3.0 | 0.00 | 0.00 | 0.00 | 28 | 999.5 |
| 20260509003535 | 69 | 312 | 1.0 | 2.0 | 0.00 | 0.00 | 0.00 | 28 | 999.6 |
| 20260509003033 | 69 | 309 | 1.0 | 6.0 | 0.00 | 0.00 | 0.00 | 28 | 999.6 |
| 20260509002531 | 69 | 299 | 1.0 | 6.0 | 0.00 | 0.00 | 0.00 | 27 | 999.6 |
| 20260509002030 | 69 | 284 | 2.0 | 7.0 | 0.00 | 0.00 | 0.00 | 27 | 999.7 |
| 20260509001527 | 69 | 249 | 2.0 | 7.0 | 0.00 | 0.00 | 0.00 | 26 | 999.6 |
| 20260509001026 | 69 | 324 | 1.0 | 3.0 | 0.00 | 0.00 | 0.00 | 27 | 999.7 |
| 20260509000523 | 70 | 336 | 1.0 | 4.0 | 0.00 | 0.00 | 0.00 | 26 | 999.7 |
| 20260509000022 | 70 | 214 | 2.0 | 7.0 | 0.00 | 0.00 | 0.00 | 26 | 999.6 |
| 20260508235519 | 70 | 163 | 1.0 | 7.0 | 0.00 | 0.00 | 0.00 | 26 | 999.8 |
| 20260508235017 | 70 | 103 | 2.0 | 6.0 | 0.00 | 0.00 | 0.00 | 25 | 999.9 |
| 20260508234515 | 70 | 310 | 3.0 | 9.0 | 0.00 | 0.00 | 0.00 | 26 | 999.9 |
| 20260508234033 | 71 | 299 | 1.0 | 4.0 | 0.00 | 0.00 | 0.00 | 25 | 999.9 |
| 20260508233532 | 71 | 323 | 2.0 | 4.0 | 0.00 | 0.00 | 0.00 | 24 | 1000.0 |
| 20260508233030 | 71 | 347 | 4.0 | 8.0 | 0.00 | 0.00 | 0.00 | 24 | 1000.2 |
| 20260508232528 | 72 | 327 | 3.0 | 9.0 | 0.00 | 0.00 | 0.00 | 24 | 1000.2 |
| 20260508232026 | 72 | 327 | 3.0 | 9.0 | 0.00 | 0.00 | 0.00 | 24 | 1000.1 |
| 20260508231544 | 72 | 195 | 4.0 | 8.0 | 0.00 | 0.00 | 0.00 | 24 | 1000.2 |
| 20260508231022 | 72 | 303 | 2.0 | 6.0 | 0.00 | 0.00 | 0.00 | 26 | 1000.3 |
| 20260508230520 | 72 | 258 | 1.0 | 4.0 | 0.00 | 0.00 | 0.00 | 26 | 1000.3 |
| 20260508230038 | 71 | 289 | 1.0 | 4.0 | 0.00 | 0.00 | 0.00 | 26 | 1000.3 |
| 20260508225516 | 71 | 299 | 2.0 | 8.0 | 0.00 | 0.00 | 0.00 | 25 | 1000.4 |
| 20260508225034 | 72 | 337 | 3.0 | 10.0 | 0.00 | 0.00 | 0.00 | 24 | 1000.5 |
| 20260508224532 | 72 | 3 | 3.0 | 11.0 | 0.00 | 0.00 | 0.00 | 25 | 1000.5 |
| 20260508224030 | 72 | 168 | 1.0 | 4.0 | 0.00 | 0.00 | 0.00 | 27 | 1000.4 |
| 20260508223528 | 71 | 229 | 2.0 | 3.0 | 0.00 | 0.00 | 0.00 | 26 | 1000.4 |
| 20260508223026 | 71 | 227 | 1.0 | 8.0 | 0.00 | 0.00 | 0.00 | 26 | 1000.6 |
| 20260508222524 | 71 | 293 | 3.0 | 10.0 | 0.00 | 0.00 | 0.00 | 26 | 1000.7 |
| 20260508222023 | 71 | 164 | 3.0 | 9.0 | 0.00 | 0.00 | 0.00 | 25 | 1000.7 |
| 20260508221520 | 71 | 127 | 2.0 | 8.0 | 0.00 | 0.00 | 0.00 | 25 | 1000.7 |
| 20260508221018 | 71 | 282 | 4.0 | 10.0 | 0.00 | 0.00 | 0.00 | 25 | 1000.8 |
| 20260508220515 | 72 | 333 | 2.0 | 7.0 | 0.00 | 0.00 | 0.00 | 26 | 1000.8 |
| 20260508220034 | 72 | 2 | 2.0 | 9.0 | 0.00 | 0.00 | 0.00 | 27 | 1000.7 |
| 20260508215532 | 72 | 139 | 2.0 | 7.0 | 0.00 | 0.00 | 0.00 | 26 | 1000.9 |
| 20260508215030 | 72 | 162 | 1.0 | 4.0 | 0.00 | 0.00 | 0.00 | 26 | 1000.9 |
| 20260508214528 | 72 | 141 | 2.0 | 4.0 | 0.00 | 0.00 | 0.00 | 25 | 1001.0 |
| 20260508214027 | 72 | 329 | 1.0 | 6.0 | 0.00 | 0.00 | 0.00 | 25 | 1001.1 |
| 20260508213524 | 72 | 285 | 2.0 | 6.0 | 0.00 | 0.00 | 0.00 | 26 | 1001.1 |
| 20260508213023 | 71 | 306 | 3.0 | 10.0 | 0.00 | 0.00 | 0.00 | 27 | 1001.1 |
| 20260508212521 | 71 | 142 | 3.0 | 9.0 | 0.00 | 0.00 | 0.00 | 27 | 1001.1 |
| 20260508212018 | 71 | 149 | 2.0 | 6.0 | 0.00 | 0.00 | 0.00 | 27 | 1001.3 |
| 20260508211516 | 71 | 218 | 3.0 | 8.0 | 0.00 | 0.00 | 0.00 | 25 | 1001.3 |
| 20260508211034 | 71 | 123 | 2.0 | 7.0 | 0.00 | 0.00 | 0.00 | 26 | 1001.4 |
| 20260508210532 | 71 | 224 | 3.0 | 13.0 | 0.00 | 0.00 | 0.00 | 25 | 1001.7 |
| 20260508210030 | 72 | 358 | 3.0 | 9.0 | 0.00 | 0.00 | 0.00 | 25 | 1001.5 |
| 20260508205529 | 72 | 200 | 2.0 | 4.0 | 0.00 | 0.00 | 0.00 | 25 | 1001.6 |
| 20260508205027 | 72 | 289 | 3.0 | 6.0 | 0.00 | 0.00 | 0.00 | 25 | 1001.8 |
| 20260508204525 | 72 | 299 | 2.0 | 6.0 | 0.00 | 0.00 | 0.00 | 24 | 1001.9 |
| 20260508204022 | 73 | 353 | 2.0 | 8.0 | 0.00 | 0.00 | 0.00 | 25 | 1002.0 |
| 20260508203521 | 73 | 347 | 3.0 | 9.0 | 0.00 | 0.00 | 0.00 | 25 | 1002.1 |
| 20260508203016 | 73 | 309 | 2.0 | 10.0 | 0.00 | 0.00 | 0.00 | 24 | 1002.0 |
| 20260508202555 | 73 | 230 | 3.0 | 13.0 | 0.00 | 0.00 | 0.00 | 25 | 1002.2 |
| 20260508202032 | 73 | 186 | 4.0 | 10.0 | 0.00 | 0.00 | 0.00 | 26 | 1002.4 |
| 20260508201530 | 73 | 174 | 3.0 | 9.0 | 0.00 | 0.00 | 0.00 | 27 | 1002.3 |
| 20260508201028 | 73 | 158 | 2.0 | 7.0 | 0.00 | 0.00 | 0.00 | 27 | 1002.5 |
| 20260508200526 | 73 | 164 | 3.0 | 9.0 | 0.00 | 0.00 | 0.00 | 26 | 1002.6 |
| 20260508200024 | 72 | 317 | 2.0 | 7.0 | 0.00 | 0.00 | 0.00 | 27 | 1002.6 |
| 20260508195522 | 72 | 292 | 2.0 | 10.0 | 0.00 | 0.00 | 0.00 | 26 | 1002.8 |
| 20260508195020 | 72 | 171 | 3.0 | 8.0 | 0.00 | 0.00 | 0.00 | 26 | 1002.8 |
| 20260508194517 | 73 | 306 | 3.0 | 8.0 | 0.00 | 0.00 | 0.00 | 26 | 1002.8 |
| 20260508194035 | 72 | 174 | 4.0 | 9.0 | 0.00 | 0.00 | 0.00 | 28 | 1002.9 |
| 20260508193533 | 72 | 169 | 3.0 | 8.0 | 0.00 | 0.00 | 0.00 | 27 | 1002.9 |
| 20260508193031 | 72 | 160 | 4.0 | 9.0 | 0.00 | 0.00 | 0.00 | 27 | 1003.0 |
| 20260508192548 | 72 | 174 | 3.0 | 7.0 | 0.00 | 0.00 | 0.00 | 27 | 1003.1 |